Location: Chaves
(41.7330°N, 7.4670°W)
Time: 23:37:36
(UTC+00:00)

ISS - Visible Passes

Search period start: 19 January 2022 00:00
Search period end: 29 January 2022 00:00
Orbit: 413 x 422 km, 51.6° (Epoch: 19 January)

Date Brightness Start Highest point End Pass type
(mag) Time Alt. Az. Time Alt. Az. Time Alt. Az.
19 Jan -2.4 17:58:50 10° SSW 18:01:38 25° SE 18:04:28 10° ENE visible
19 Jan -2.4 19:35:06 10° W 19:37:38 36° WNW 19:37:38 36° WNW visible
20 Jan -3.6 18:47:02 10° WSW 18:50:20 65° NNW 18:51:53 28° NE visible
21 Jan -3.7 17:59:11 10° SW 18:02:30 76° SE 18:05:50 10° ENE visible
21 Jan -1.7 19:36:52 10° WNW 19:39:05 22° NNW 19:39:05 22° NNW visible
22 Jan -2.3 18:48:41 10° W 18:51:40 29° NNW 18:53:21 19° NNE visible
23 Jan -2.9 18:00:41 10° W 18:03:52 42° NNW 18:07:04 10° NE visible
23 Jan -1.3 19:39:06 10° NW 19:40:35 15° NNW 19:40:35 15° NNW visible
24 Jan -1.7 18:51:01 10° WNW 18:53:28 19° NNW 18:54:55 15° NNE visible
25 Jan -2.0 18:02:58 10° WNW 18:05:41 23° NNW 18:08:25 10° NE visible
25 Jan -1.1 19:41:22 10° NW 19:42:15 13° NNW 19:42:15 13° NNW visible
26 Jan -1.6 18:53:35 10° NW 18:55:37 15° N 18:56:41 13° NNE visible
27 Jan -1.6 18:05:44 10° NW 18:07:57 16° N 18:10:09 10° NNE visible
27 Jan -1.1 19:43:22 10° NNW 19:44:10 14° NNW 19:44:10 14° NNW visible
28 Jan -1.7 18:55:58 10° NNW 18:58:07 16° N 18:58:46 15° NNE visible
